Location: Nashville
(36.1627°N, 86.7816°W)
Time: 00:25:19
(UTC-06:00)

ISS - Visible Passes

Search period start: 02 December 2023 00:00
Search period end: 12 December 2023 00:00
Orbit: 416 x 417 km, 51.6° (Epoch: 01 December)

Date Brightness Start Highest point End Pass type
(mag) Time Alt. Az. Time Alt. Az. Time Alt. Az.
02 Dec -2.1 18:18:26 10° NW 18:20:09 26° NNW 18:20:09 26° NNW visible
03 Dec -2.7 17:30:12 10° NNW 17:33:07 27° NNE 17:34:20 21° ENE visible
03 Dec -0.4 19:06:54 10° WNW 19:07:18 12° WNW 19:07:18 12° WNW visible
04 Dec -3.1 18:18:08 10° WNW 18:21:25 53° SW 18:21:47 50° SSW visible
05 Dec -3.9 17:29:34 10° NW 17:32:55 77° NE 17:36:14 10° SE visible
06 Dec -0.7 18:18:35 10° W 18:20:47 16° SW 18:22:58 10° S visible
07 Dec -1.7 17:29:20 10° WNW 17:32:20 30° SW 17:35:18 10° SSE visible
